AAR1075 RJTT-RKSS

Flight info

Callsign AAR1075
Flight time 1h 59m
Altitude 32000
Route BEKLA5C BEKLA Y18 PIGAP Y182 BIDIK Y16 SAPRA Y685 GUKDO GUKDO2T
Aircraft A321/M-SDE3FGHIRWY/LB1

Departure

Time 2026-05-05 05:41
Airport Tokyo Haneda International Airport (RJTT)

Arrival

Time 2026-05-05 07:40
Airport Gimpo International Airport (RKSS)
Time Latitude Longitude Altitude Speed Heading
2026-05-05 04:52 35.54457 139.77379 27 ft 0 kts 60°
2026-05-05 05:30 35.54454 139.77374 23 ft 2 kts 60°
2026-05-05 05:30 35.54445 139.77353 23 ft 3 kts 63°
2026-05-05 05:30 35.54436 139.77330 24 ft 3 kts 67°
2026-05-05 05:31 35.54429 139.77307 24 ft 3 kts 76°
2026-05-05 05:31 35.54426 139.77284 23 ft 3 kts 97°
2026-05-05 05:31 35.54430 139.77265 25 ft 2 kts 140°
2026-05-05 05:31 35.54433 139.77261 23 ft 1 kts 150°
2026-05-05 05:33 35.54429 139.77264 25 ft 3 kts 150°
2026-05-05 05:34 35.54377 139.77302 22 ft 12 kts 148°
2026-05-05 05:34 35.54358 139.77386 25 ft 10 kts 73°
2026-05-05 05:34 35.54393 139.77461 23 ft 11 kts 59°
2026-05-05 05:34 35.54441 139.77560 23 ft 16 kts 60°
2026-05-05 05:35 35.54533 139.77564 23 ft 16 kts 330°
2026-05-05 05:35 35.54652 139.77479 22 ft 24 kts 330°
2026-05-05 05:35 35.54794 139.77378 24 ft 24 kts 330°
2026-05-05 05:35 35.54935 139.77278 28 ft 22 kts 330°
2026-05-05 05:36 35.55065 139.77187 27 ft 22 kts 330°
2026-05-05 05:36 35.55204 139.77088 24 ft 23 kts 332°
2026-05-05 05:36 35.55340 139.76992 23 ft 21 kts 329°
2026-05-05 05:36 35.55466 139.76909 24 ft 19 kts 352°
2026-05-05 05:37 35.55580 139.76979 24 ft 19 kts 33°
2026-05-05 05:37 35.55689 139.77074 26 ft 18 kts 36°
2026-05-05 05:37 35.55795 139.77162 23 ft 20 kts 35°
2026-05-05 05:37 35.55903 139.77259 26 ft 18 kts 39°
2026-05-05 05:38 35.55975 139.77392 24 ft 21 kts 60°
2026-05-05 05:38 35.56058 139.77567 23 ft 25 kts 60°
2026-05-05 05:38 35.56141 139.77744 25 ft 23 kts 59°
2026-05-05 05:38 35.56221 139.77912 30 ft 22 kts 60°
2026-05-05 05:39 35.56299 139.78077 28 ft 22 kts 59°
2026-05-05 05:39 35.56376 139.78237 27 ft 22 kts 60°
2026-05-05 05:39 35.56450 139.78394 25 ft 20 kts 60°
2026-05-05 05:39 35.56503 139.78506 27 ft 14 kts 60°
2026-05-05 05:40 35.56551 139.78607 28 ft 12 kts 58°
2026-05-05 05:40 35.56543 139.78686 48 ft 10 kts 139°
2026-05-05 05:40 35.56484 139.78729 30 ft 10 kts 149°
2026-05-05 05:40 35.56352 139.78823 28 ft 48 kts 150°
2026-05-05 05:41 35.55863 139.79171 27 ft 112 kts 150°
2026-05-05 05:41 35.55037 139.79760 31 ft 161 kts 149°
2026-05-05 05:41 35.54014 139.80501 392 ft 174 kts 150°
2026-05-05 05:41 35.53067 139.81436 1187 ft 181 kts 128°
2026-05-05 05:42 35.52460 139.82802 1823 ft 184 kts 123°
2026-05-05 05:42 35.51833 139.84255 2028 ft 201 kts 123°
2026-05-05 05:42 35.51148 139.85835 2161 ft 219 kts 122°
2026-05-05 05:42 35.50389 139.87579 2257 ft 246 kts 122°
2026-05-05 05:43 35.49545 139.89494 2690 ft 259 kts 122°
2026-05-05 05:43 35.48683 139.91466 3327 ft 265 kts 122°
2026-05-05 05:43 35.48078 139.93629 3952 ft 277 kts 95°
2026-05-05 05:43 35.48451 139.95951 4543 ft 285 kts 62°
2026-05-05 05:44 35.49683 139.97857 5206 ft 287 kts 45°
2026-05-05 05:44 35.51062 139.99646 5890 ft 289 kts 45°
2026-05-05 05:44 35.52427 140.01471 6606 ft 291 kts 45°
2026-05-05 05:44 35.53828 140.03280 7251 ft 293 kts 37°
2026-05-05 05:45 35.55561 140.04519 7876 ft 289 kts 14°
2026-05-05 05:45 35.57522 140.04868 8506 ft 284 kts 351°
2026-05-05 05:45 35.59408 140.04291 9143 ft 279 kts 333°
2026-05-05 05:45 35.61199 140.03348 9807 ft 281 kts 333°
2026-05-05 05:46 35.63010 140.02395 10307 ft 290 kts 333°
2026-05-05 05:46 35.64269 140.01730 10387 ft 304 kts 333°
2026-05-05 05:46 35.66987 140.00296 10564 ft 332 kts 333°
2026-05-05 05:46 35.68419 139.99539 10637 ft 345 kts 332°
2026-05-05 05:47 35.70502 139.98020 10943 ft 352 kts 319°
2026-05-05 05:47 35.72260 139.95924 11484 ft 352 kts 306°
2026-05-05 05:47 35.73570 139.93385 12072 ft 352 kts 293°
2026-05-05 05:47 35.74347 139.90538 12677 ft 352 kts 280°
2026-05-05 05:48 35.74723 139.87550 13295 ft 354 kts 278°
2026-05-05 05:48 35.75077 139.84543 13902 ft 356 kts 277°
2026-05-05 05:48 35.75432 139.81513 14486 ft 358 kts 277°
2026-05-05 05:48 35.75789 139.78467 15048 ft 360 kts 277°
2026-05-05 05:49 35.76150 139.75420 15587 ft 363 kts 277°
2026-05-05 05:49 35.76592 139.72341 16141 ft 366 kts 283°
2026-05-05 05:49 35.77335 139.69332 16691 ft 369 kts 285°
2026-05-05 05:49 35.78100 139.66296 17232 ft 371 kts 285°
2026-05-05 05:50 35.78863 139.63247 17759 ft 374 kts 285°
2026-05-05 05:50 35.79631 139.60173 18289 ft 377 kts 285°
2026-05-05 05:50 35.80405 139.57076 18771 ft 379 kts 285°
2026-05-05 05:50 35.81176 139.53972 19232 ft 381 kts 285°
2026-05-05 05:51 35.81949 139.50840 19711 ft 383 kts 285°
2026-05-05 05:51 35.82637 139.47672 20159 ft 383 kts 278°
2026-05-05 05:51 35.82887 139.44402 20599 ft 384 kts 270°
2026-05-05 05:51 35.82932 139.41116 21034 ft 385 kts 270°
2026-05-05 05:52 35.82982 139.37802 21455 ft 387 kts 270°
2026-05-05 05:52 35.83035 139.34481 21872 ft 389 kts 270°
2026-05-05 05:52 35.83089 139.31141 22290 ft 391 kts 270°
2026-05-05 05:52 35.83141 139.27778 22698 ft 393 kts 270°
2026-05-05 05:53 35.83191 139.24405 23089 ft 395 kts 270°
2026-05-05 05:53 35.83239 139.21008 23481 ft 397 kts 270°
2026-05-05 05:53 35.83285 139.17599 23871 ft 399 kts 270°
2026-05-05 05:53 35.83262 139.14172 24192 ft 401 kts 268°
2026-05-05 05:54 35.83134 139.10744 24522 ft 402 kts 266°
2026-05-05 05:54 35.82941 139.07308 24925 ft 401 kts 265°
2026-05-05 05:54 35.82727 139.03888 25294 ft 401 kts 265°
2026-05-05 05:54 35.82517 139.00458 25618 ft 402 kts 265°
2026-05-05 05:55 35.82322 138.97029 26036 ft 401 kts 265°
2026-05-05 05:55 35.82141 138.93607 26426 ft 400 kts 265°
2026-05-05 05:55 35.81971 138.90184 26710 ft 401 kts 265°
2026-05-05 05:55 35.81805 138.86750 27044 ft 402 kts 265°
2026-05-05 05:56 35.81639 138.83317 27410 ft 402 kts 265°
2026-05-05 05:56 35.81470 138.79876 27794 ft 401 kts 265°
2026-05-05 05:56 35.81300 138.76467 28283 ft 398 kts 264°
2026-05-05 05:56 35.81128 138.73093 28815 ft 393 kts 264°
2026-05-05 05:57 35.80953 138.69748 29356 ft 389 kts 264°
2026-05-05 05:57 35.80777 138.66440 29855 ft 385 kts 264°
2026-05-05 05:57 35.80603 138.63164 30357 ft 381 kts 264°
2026-05-05 05:57 35.80433 138.59922 30780 ft 377 kts 264°
2026-05-05 05:58 35.80264 138.56713 31226 ft 373 kts 263°
2026-05-05 05:58 35.80096 138.53536 31648 ft 370 kts 263°
2026-05-05 05:58 35.79928 138.50386 32041 ft 368 kts 263°
2026-05-05 05:58 35.79758 138.47242 32150 ft 366 kts 263°
2026-05-05 05:59 35.79425 138.41031 32168 ft 362 kts 263°
2026-05-05 05:59 35.79095 138.34838 32166 ft 363 kts 264°
2026-05-05 06:00 35.79746 138.28636 32171 ft 374 kts 282°
2026-05-05 06:00 35.81423 138.22567 32168 ft 375 kts 281°
2026-05-05 06:01 35.83082 138.16479 32181 ft 375 kts 282°
2026-05-05 06:01 35.84733 138.10365 32167 ft 376 kts 282°
2026-05-05 06:02 35.86389 138.04239 32153 ft 377 kts 282°
2026-05-05 06:02 35.88050 137.98095 32152 ft 378 kts 282°
2026-05-05 06:03 35.89714 137.91933 32149 ft 379 kts 282°
2026-05-05 06:03 35.91375 137.85758 32139 ft 381 kts 282°
2026-05-05 06:04 35.93033 137.79542 32148 ft 381 kts 282°
2026-05-05 06:04 35.94692 137.73312 32156 ft 382 kts 282°
2026-05-05 06:05 35.96360 137.67078 32159 ft 382 kts 282°
2026-05-05 06:05 35.98028 137.60842 32162 ft 383 kts 282°
2026-05-05 06:06 35.99695 137.54589 32162 ft 384 kts 282°
2026-05-05 06:06 36.01152 137.48273 32156 ft 378 kts 274°
2026-05-05 06:07 36.01277 137.41834 32161 ft 376 kts 267°
2026-05-05 06:07 36.01268 137.35374 32159 ft 376 kts 267°
2026-05-05 06:08 36.01267 137.28903 32159 ft 377 kts 267°
2026-05-05 06:08 36.01259 137.22430 32155 ft 378 kts 267°
2026-05-05 06:09 36.01246 137.15933 32155 ft 379 kts 267°
2026-05-05 06:09 36.01232 137.09419 32158 ft 379 kts 267°
2026-05-05 06:10 36.01215 137.02909 32157 ft 379 kts 267°
2026-05-05 06:10 36.01189 136.96391 32155 ft 380 kts 267°
2026-05-05 06:11 36.01162 136.89866 32157 ft 380 kts 267°
2026-05-05 06:11 36.01129 136.83338 32155 ft 380 kts 267°
2026-05-05 06:12 36.01093 136.76788 32156 ft 382 kts 267°
2026-05-05 06:12 36.01052 136.70232 32159 ft 382 kts 267°
2026-05-05 06:13 36.01005 136.63668 32154 ft 382 kts 267°
2026-05-05 06:13 36.00959 136.57108 32147 ft 382 kts 267°
2026-05-05 06:14 36.00918 136.50534 32148 ft 383 kts 267°
2026-05-05 06:14 36.00868 136.43961 32155 ft 383 kts 267°
2026-05-05 06:15 36.00810 136.37380 32148 ft 383 kts 266°
2026-05-05 06:15 36.00746 136.30800 32140 ft 383 kts 267°
2026-05-05 06:16 36.00684 136.24205 32147 ft 384 kts 267°
2026-05-05 06:16 36.00617 136.17608 32152 ft 385 kts 266°
2026-05-05 06:17 36.00543 136.10996 32155 ft 385 kts 267°
2026-05-05 06:17 36.00469 136.04384 32155 ft 385 kts 266°
2026-05-05 06:18 36.00390 135.97761 32158 ft 386 kts 266°
2026-05-05 06:18 36.00307 135.91134 32160 ft 386 kts 266°
2026-05-05 06:19 36.00221 135.84497 32155 ft 386 kts 266°
2026-05-05 06:19 36.00128 135.77859 32158 ft 387 kts 266°
2026-05-05 06:20 36.00029 135.71217 32156 ft 387 kts 266°
2026-05-05 06:20 35.99929 135.64577 32159 ft 387 kts 266°
2026-05-05 06:21 35.99829 135.57934 32158 ft 387 kts 266°
2026-05-05 06:21 35.99726 135.51282 32155 ft 387 kts 266°
2026-05-05 06:22 35.99620 135.44630 32153 ft 388 kts 266°
2026-05-05 06:22 35.99507 135.37972 32151 ft 388 kts 266°
2026-05-05 06:23 35.99389 135.31310 32153 ft 388 kts 266°
2026-05-05 06:23 35.99263 135.24639 32153 ft 389 kts 266°
2026-05-05 06:24 35.99140 135.17961 32150 ft 389 kts 266°
2026-05-05 06:24 35.99015 135.11287 32149 ft 389 kts 266°
2026-05-05 06:25 35.98885 135.04600 32150 ft 390 kts 266°
2026-05-05 06:25 35.98757 134.97910 32153 ft 390 kts 266°
2026-05-05 06:26 35.98642 134.92348 32153 ft 390 kts 266°
2026-05-05 06:26 35.98498 134.85649 32152 ft 390 kts 266°
2026-05-05 06:27 35.98237 134.74460 32150 ft 391 kts 266°
2026-05-05 06:28 35.98116 134.68882 32153 ft 392 kts 266°
2026-05-05 06:28 35.97967 134.62156 32154 ft 392 kts 266°
2026-05-05 06:29 35.97804 134.55431 32156 ft 392 kts 266°
2026-05-05 06:29 35.97640 134.48708 32153 ft 392 kts 266°
2026-05-05 06:30 35.97470 134.41984 32147 ft 392 kts 266°
2026-05-05 06:30 35.97294 134.35247 32143 ft 393 kts 266°
2026-05-05 06:31 35.97122 134.28507 32151 ft 393 kts 266°
2026-05-05 06:31 35.96946 134.21761 32154 ft 393 kts 266°
2026-05-05 06:32 35.96759 134.15014 32154 ft 394 kts 266°
2026-05-05 06:32 35.96568 134.08257 32154 ft 394 kts 266°
2026-05-05 06:33 35.96376 134.01510 32153 ft 394 kts 266°
2026-05-05 06:33 35.96183 133.94723 32151 ft 395 kts 266°
2026-05-05 06:34 35.95980 133.87952 32150 ft 395 kts 265°
2026-05-05 06:34 35.95773 133.81169 32147 ft 396 kts 265°
2026-05-05 06:35 35.95566 133.74378 32148 ft 396 kts 265°
2026-05-05 06:35 35.95356 133.67570 32151 ft 397 kts 265°
2026-05-05 06:36 35.95139 133.60773 32151 ft 397 kts 265°
2026-05-05 06:36 35.94921 133.53964 32151 ft 397 kts 265°
2026-05-05 06:37 35.94692 133.47152 32152 ft 397 kts 265°
2026-05-05 06:37 35.94457 133.40332 32150 ft 398 kts 265°
2026-05-05 06:38 35.94224 133.33516 32150 ft 398 kts 265°
2026-05-05 06:38 35.93990 133.26703 32147 ft 398 kts 265°
2026-05-05 06:39 35.93751 133.19876 32153 ft 398 kts 265°
2026-05-05 06:39 35.93504 133.13048 32149 ft 399 kts 265°
2026-05-05 06:40 35.93255 133.06218 32152 ft 399 kts 265°
2026-05-05 06:40 35.93000 132.99380 32154 ft 399 kts 265°
2026-05-05 06:41 35.92750 132.92536 32150 ft 399 kts 265°
2026-05-05 06:41 35.92494 132.85697 32149 ft 399 kts 265°
2026-05-05 06:42 35.92222 132.78855 32146 ft 399 kts 265°
2026-05-05 06:42 35.91946 132.72006 32139 ft 399 kts 265°
2026-05-05 06:43 35.91670 132.65167 32143 ft 400 kts 265°
2026-05-05 06:43 35.91395 132.58317 32139 ft 400 kts 265°
2026-05-05 06:44 35.91116 132.51466 32135 ft 400 kts 265°
2026-05-05 06:44 35.90838 132.44609 32136 ft 400 kts 265°
2026-05-05 06:45 35.90553 132.37748 32130 ft 401 kts 265°
2026-05-05 06:45 35.90259 132.30883 32129 ft 401 kts 265°
2026-05-05 06:46 35.89956 132.24024 32129 ft 401 kts 265°
2026-05-05 06:46 35.89656 132.17154 32125 ft 401 kts 265°
2026-05-05 06:47 35.89352 132.10274 32128 ft 402 kts 265°
2026-05-05 06:47 35.89038 132.03397 32123 ft 402 kts 264°
2026-05-05 06:48 35.88719 131.96522 32123 ft 402 kts 264°
2026-05-05 06:48 35.88402 131.89636 32124 ft 402 kts 264°
2026-05-05 06:49 35.88080 131.82743 32127 ft 403 kts 264°
2026-05-05 06:49 35.87751 131.75853 32124 ft 403 kts 264°
2026-05-05 06:50 35.87422 131.68951 32124 ft 403 kts 264°
2026-05-05 06:50 35.87092 131.62049 32125 ft 404 kts 264°
2026-05-05 06:51 35.86755 131.55137 32127 ft 404 kts 264°
2026-05-05 06:51 35.86412 131.48217 32127 ft 404 kts 264°
2026-05-05 06:52 35.86062 131.41297 32128 ft 405 kts 264°
2026-05-05 06:52 35.85708 131.34373 32130 ft 405 kts 264°
2026-05-05 06:53 35.85354 131.27450 32129 ft 405 kts 264°
2026-05-05 06:53 35.84992 131.20523 32126 ft 405 kts 264°
2026-05-05 06:54 35.84631 131.13595 32124 ft 405 kts 264°
2026-05-05 06:54 35.84269 131.06651 32123 ft 406 kts 264°
2026-05-05 06:55 35.83899 130.99710 32123 ft 406 kts 264°
2026-05-05 06:55 35.83517 130.92770 32117 ft 406 kts 264°
2026-05-05 06:56 35.83135 130.85817 32107 ft 406 kts 264°
2026-05-05 06:56 35.82748 130.78869 32109 ft 407 kts 264°
2026-05-05 06:57 35.82501 130.71907 32106 ft 409 kts 271°
2026-05-05 06:57 35.83332 130.64951 32107 ft 411 kts 276°
2026-05-05 06:58 35.84217 130.57991 32096 ft 411 kts 276°
2026-05-05 06:58 35.85100 130.51017 32100 ft 412 kts 276°
2026-05-05 06:59 35.85977 130.44042 32105 ft 412 kts 276°
2026-05-05 06:59 35.86851 130.37100 32105 ft 413 kts 276°
2026-05-05 07:00 35.87729 130.30055 32100 ft 413 kts 275°
2026-05-05 07:00 35.88596 130.23057 32098 ft 413 kts 275°
2026-05-05 07:01 35.89458 130.16097 32088 ft 414 kts 276°
2026-05-05 07:01 35.90327 130.09079 32094 ft 414 kts 276°
2026-05-05 07:02 35.91188 130.02050 32097 ft 414 kts 275°
2026-05-05 07:02 35.92040 129.95017 32095 ft 415 kts 275°
2026-05-05 07:03 35.92891 129.87971 32090 ft 415 kts 275°
2026-05-05 07:03 35.93740 129.80927 32091 ft 416 kts 276°
2026-05-05 07:04 35.94594 129.73870 32086 ft 416 kts 276°
2026-05-05 07:04 35.95444 129.66802 32083 ft 416 kts 275°
2026-05-05 07:05 35.96280 129.59732 32077 ft 417 kts 275°
2026-05-05 07:05 35.97112 129.52640 32077 ft 417 kts 276°
2026-05-05 07:06 35.98868 129.45789 32074 ft 425 kts 294°
2026-05-05 07:06 36.02205 129.39694 32068 ft 430 kts 301°
2026-05-05 07:07 36.05691 129.33690 32064 ft 430 kts 301°
2026-05-05 07:07 36.09162 129.27671 32061 ft 430 kts 301°
2026-05-05 07:08 36.12628 129.21634 32058 ft 431 kts 301°
2026-05-05 07:08 36.16099 129.15586 32054 ft 431 kts 301°
2026-05-05 07:09 36.19567 129.09539 32043 ft 431 kts 301°
2026-05-05 07:09 36.22454 129.04502 32048 ft 431 kts 301°
2026-05-05 07:10 36.25919 128.98442 32042 ft 432 kts 301°
2026-05-05 07:10 36.29387 128.92363 32048 ft 432 kts 301°
2026-05-05 07:11 36.32851 128.86271 32046 ft 433 kts 301°
2026-05-05 07:11 36.36324 128.80170 32045 ft 433 kts 301°
2026-05-05 07:12 36.39793 128.74071 32045 ft 433 kts 301°
2026-05-05 07:12 36.43263 128.67958 32041 ft 433 kts 301°
2026-05-05 07:13 36.46727 128.61834 32044 ft 433 kts 301°
2026-05-05 07:13 36.50185 128.55704 32041 ft 434 kts 302°
2026-05-05 07:14 36.53648 128.49562 32037 ft 434 kts 302°
2026-05-05 07:14 36.57133 128.43374 32034 ft 434 kts 302°
2026-05-05 07:15 36.60589 128.37210 32033 ft 434 kts 302°
2026-05-05 07:15 36.64044 128.31033 32034 ft 435 kts 302°
2026-05-05 07:16 36.67548 128.24880 32032 ft 436 kts 303°
2026-05-05 07:16 36.69304 128.21817 31530 ft 435 kts 303°
2026-05-05 07:16 36.71068 128.18735 30743 ft 439 kts 303°
2026-05-05 07:16 36.72844 128.15622 29927 ft 443 kts 303°
2026-05-05 07:17 36.74637 128.12472 28990 ft 447 kts 303°
2026-05-05 07:17 36.76436 128.09302 28083 ft 450 kts 303°
2026-05-05 07:17 36.78250 128.06099 27210 ft 453 kts 303°
2026-05-05 07:17 36.80060 128.02901 26587 ft 449 kts 303°
2026-05-05 07:18 36.81856 127.99725 25955 ft 446 kts 304°
2026-05-05 07:18 36.83638 127.96570 25331 ft 443 kts 304°
2026-05-05 07:18 36.85407 127.93435 24728 ft 440 kts 304°
2026-05-05 07:18 36.87165 127.90318 24127 ft 438 kts 304°
2026-05-05 07:19 36.88913 127.87212 23523 ft 436 kts 304°
2026-05-05 07:19 36.90648 127.84120 22858 ft 433 kts 304°
2026-05-05 07:19 36.92371 127.81053 22224 ft 429 kts 304°
2026-05-05 07:19 36.94084 127.78008 21609 ft 426 kts 304°
2026-05-05 07:20 36.95759 127.75038 21018 ft 423 kts 305°
2026-05-05 07:20 36.97471 127.72000 20434 ft 420 kts 305°
2026-05-05 07:20 36.99141 127.69032 19875 ft 417 kts 304°
2026-05-05 07:20 37.00946 127.66211 19347 ft 414 kts 313°
2026-05-05 07:21 37.03082 127.63824 18872 ft 410 kts 324°
2026-05-05 07:21 37.05463 127.61960 18734 ft 398 kts 333°
2026-05-05 07:21 37.07920 127.60500 18608 ft 385 kts 335°
2026-05-05 07:21 37.10305 127.59104 18493 ft 372 kts 335°
2026-05-05 07:22 37.12611 127.57751 18376 ft 360 kts 335°
2026-05-05 07:22 37.14836 127.56427 18248 ft 348 kts 332°
2026-05-05 07:22 37.16814 127.54771 18095 ft 337 kts 319°
2026-05-05 07:22 37.18433 127.52687 17794 ft 332 kts 307°
2026-05-05 07:23 37.19759 127.50337 17413 ft 329 kts 304°
2026-05-05 07:23 37.21062 127.47982 17016 ft 327 kts 304°
2026-05-05 07:23 37.22356 127.45645 16630 ft 326 kts 304°
2026-05-05 07:23 37.23650 127.43315 16260 ft 324 kts 304°
2026-05-05 07:24 37.24934 127.41002 15874 ft 323 kts 303°
2026-05-05 07:24 37.26218 127.38693 15538 ft 321 kts 303°
2026-05-05 07:24 37.27493 127.36396 15192 ft 320 kts 303°
2026-05-05 07:24 37.28764 127.34104 14856 ft 319 kts 303°
2026-05-05 07:25 37.30025 127.31825 14512 ft 317 kts 303°
2026-05-05 07:25 37.31283 127.29552 14164 ft 316 kts 303°
2026-05-05 07:25 37.32535 127.27287 13812 ft 315 kts 303°
2026-05-05 07:25 37.33777 127.25037 13433 ft 313 kts 303°
2026-05-05 07:26 37.35014 127.22795 13091 ft 310 kts 302°
2026-05-05 07:26 37.36109 127.20486 12759 ft 305 kts 291°
2026-05-05 07:26 37.36763 127.17985 12430 ft 299 kts 280°
2026-05-05 07:26 37.37221 127.15441 12112 ft 297 kts 280°
2026-05-05 07:27 37.37678 127.12925 11805 ft 294 kts 280°
2026-05-05 07:27 37.38137 127.10430 11488 ft 291 kts 281°
2026-05-05 07:27 37.38591 127.07963 11176 ft 289 kts 281°
2026-05-05 07:27 37.39036 127.05546 10866 ft 286 kts 281°
2026-05-05 07:28 37.39488 127.03090 10516 ft 284 kts 281°
2026-05-05 07:28 37.39931 127.00677 10206 ft 282 kts 281°
2026-05-05 07:28 37.40370 126.98279 9883 ft 280 kts 281°
2026-05-05 07:28 37.40805 126.95898 9554 ft 278 kts 281°
2026-05-05 07:29 37.41233 126.93565 9217 ft 277 kts 282°
2026-05-05 07:29 37.41915 126.91266 8871 ft 277 kts 291°
2026-05-05 07:29 37.42692 126.89088 8572 ft 275 kts 291°
2026-05-05 07:29 37.43395 126.87085 8241 ft 274 kts 291°
2026-05-05 07:30 37.44152 126.84923 7944 ft 273 kts 291°
2026-05-05 07:30 37.45689 126.80543 7288 ft 270 kts 291°
2026-05-05 07:30 37.46385 126.78356 7051 ft 267 kts 288°
2026-05-05 07:31 37.47001 126.76178 7003 ft 268 kts 286°
2026-05-05 07:31 37.47614 126.73926 7013 ft 268 kts 286°
2026-05-05 07:31 37.48218 126.71705 7008 ft 269 kts 287°
2026-05-05 07:31 37.48745 126.69464 6825 ft 265 kts 277°
2026-05-05 07:32 37.48991 126.67200 6519 ft 264 kts 275°
2026-05-05 07:32 37.49236 126.64913 6196 ft 263 kts 276°
2026-05-05 07:32 37.49486 126.62639 5869 ft 262 kts 276°
2026-05-05 07:32 37.49933 126.60386 5556 ft 264 kts 290°
2026-05-05 07:33 37.50872 126.58404 5216 ft 266 kts 307°
2026-05-05 07:33 37.52150 126.56756 4886 ft 266 kts 312°
2026-05-05 07:33 37.53464 126.55119 4633 ft 262 kts 312°
2026-05-05 07:33 37.54736 126.53530 4495 ft 253 kts 312°
2026-05-05 07:34 37.56188 126.52358 4373 ft 248 kts 341°
2026-05-05 07:34 37.57879 126.52391 4080 ft 247 kts 18°
2026-05-05 07:34 37.59279 126.53620 3687 ft 247 kts 45°
2026-05-05 07:34 37.60499 126.55156 3277 ft 248 kts 46°
2026-05-05 07:35 37.61717 126.56706 2962 ft 249 kts 46°
2026-05-05 07:35 37.62926 126.58242 2839 ft 243 kts 45°
2026-05-05 07:35 37.64094 126.59713 2784 ft 228 kts 46°
2026-05-05 07:35 37.65181 126.61077 2839 ft 216 kts 46°
2026-05-05 07:36 37.66206 126.62418 2806 ft 209 kts 55°
2026-05-05 07:36 37.66646 126.64085 2794 ft 198 kts 96°
2026-05-05 07:36 37.66255 126.65637 2657 ft 180 kts 131°
2026-05-05 07:36 37.65408 126.66762 2456 ft 176 kts 141°
2026-05-05 07:37 37.64567 126.67819 2228 ft 165 kts 140°
2026-05-05 07:37 37.63761 126.68832 2038 ft 165 kts 142°
2026-05-05 07:37 37.62962 126.69838 1805 ft 162 kts 142°
2026-05-05 07:37 37.62290 126.70684 1614 ft 154 kts 142°
2026-05-05 07:38 37.61539 126.71629 1400 ft 150 kts 142°
2026-05-05 07:38 37.60798 126.72562 1199 ft 150 kts 141°
2026-05-05 07:38 37.60058 126.73494 1002 ft 149 kts 141°
2026-05-05 07:38 37.59314 126.74429 772 ft 152 kts 139°
2026-05-05 07:39 37.58562 126.75374 567 ft 152 kts 142°
2026-05-05 07:39 37.57810 126.76316 369 ft 154 kts 137°
2026-05-05 07:39 37.57051 126.77275 162 ft 153 kts 139°
2026-05-05 07:39 37.56312 126.78202 62 ft 138 kts 139°
2026-05-05 07:40 37.55743 126.78921 56 ft 91 kts 136°
2026-05-05 07:40 37.55396 126.79354 55 ft 58 kts 135°
2026-05-05 07:40 37.55128 126.79693 53 ft 52 kts 134°
2026-05-05 07:40 37.54941 126.79929 55 ft 27 kts 135°
2026-05-05 07:41 37.54833 126.80073 57 ft 17 kts 117°
2026-05-05 07:41 37.54854 126.80147 52 ft 6 kts 49°
2026-05-05 07:41 37.54896 126.80208 61 ft 15 kts 46°
2026-05-05 07:41 37.54974 126.80308 55 ft 17 kts 44°
2026-05-05 07:42 37.55063 126.80419 60 ft 19 kts 45°
2026-05-05 07:42 37.55150 126.80514 61 ft 12 kts
2026-05-05 07:42 37.55215 126.80456 65 ft 14 kts 315°
2026-05-05 07:42 37.55302 126.80346 61 ft 19 kts 315°
2026-05-05 07:43 37.55400 126.80226 63 ft 20 kts 316°
2026-05-05 07:43 37.55498 126.80100 63 ft 20 kts 315°
2026-05-05 07:43 37.55600 126.79971 63 ft 21 kts 315°
2026-05-05 07:43 37.55706 126.79837 60 ft 22 kts 315°
2026-05-05 07:44 37.55816 126.79700 61 ft 23 kts 314°
2026-05-05 07:44 37.55928 126.79557 62 ft 23 kts 315°
2026-05-05 07:44 37.56045 126.79411 60 ft 24 kts 314°
2026-05-05 07:44 37.56139 126.79293 57 ft 14 kts 315°
2026-05-05 07:45 37.56219 126.79310 65 ft 13 kts 47°
2026-05-05 07:45 37.56284 126.79395 67 ft 14 kts 45°
2026-05-05 07:45 37.56355 126.79485 61 ft 15 kts 45°
2026-05-05 07:45 37.56432 126.79580 59 ft 16 kts 44°
2026-05-05 07:46 37.56509 126.79678 60 ft 16 kts 43°
2026-05-05 07:46 37.56531 126.79756 64 ft 9 kts 118°
2026-05-05 07:46 37.56490 126.79811 64 ft 4 kts 134°
2026-05-05 07:46 37.56482 126.79821 58 ft 0 kts 134°
2026-05-05 07:47 37.56481 126.79823 59 ft 0 kts 135°